COSMOS 1275 DEB

Satellite information

Favourite Embed

Satellite Type and Status

DEBRISIN ORBIT

Key statistics

Satellite COSMOS 1275 DEB at a glance.

Uptime

16263

Days in orbit

Revolutions

≈ 13.9

Per day

Orbit

LEO

Low Earth Orbit

Inclination

82.9

Latest

Satellite identification and parameters

Extended collection of information and parameters for COSMOS 1275 DEB.

Object identification

Identified? True

Debris? True

Object name: COSMOS 1275 DEB

International designator: 1981-053DW

Object number (NORAD): 12780

Object ID (CCSDS): 12780

Country: COMMONWEALTH OF INDEPENDENT STATES (CIS)

Current information (Y/N): Y

RCS size: MEDIUM

Orbital parameters

Period: 103.5 minutes

Inclination: 82.9469 deg

SMA: 7302.182 km

Apoapsis: 940.831 km

Periapsis: 907.263 km

RAAN: 216.8217 deg

Eccentricy: 0.00229846

Argument of periapsis: 322.1126 deg

Mean anomaly: 163.6268 deg

Mean motion: 13.91309575 rev/day

Mean motion (dot): 0.00001047 rev/day2

B* drag term: 0.00081629576 1/REarth

Two-line elements (TLE)

Creation date: Dec. 12, 2025, 10:14 a.m.

Reference frame: TEME

Reference center: EARTH

Epoch: Dec. 12, 2025, 3:56 a.m. UTC

TLE line 0: 0 COSMOS 1275 DEB

TLE line 1: 1 12780U 81053DW 25346.16448317 .00001047 00000-0 81630-3 0 9992

TLE line 2: 2 12780 82.9469 216.8217 0022985 322.1126 163.6268 13.91309575239119

Live tracking on map

Real-time ground track for satellite COSMOS 1275 DEB.

In-orbit conjunctions

A list of the most updated potential collisions computed for object COSMOS 1275 DEB.

Target Orbit TCA Probability of collision Miss distance Type
THORAD AGENA D DEB SSO 2024-11-18 23:53:28 0.0002277602 84.0 (m) DEBRIS
FENGYUN 1C DEB SSO 2024-08-16 00:50:44 0.0003366865 83.0 (m) DEBRIS
COSMOS 1275 DEB LEO 2024-08-03 15:10:23 0.003555566 20.0 (m) DEBRIS

Associated space launch

Navigation satellite providing location information for the Tsiklon-B navigation system

COSMOS 1275 DEB was lifted into orbit during the mission ‘Kosmos-3M | Parus 27’, on board a Kosmos-3M space rocket.

The launch took place on June 4, 1981, 3:41 p.m. from 132/2.

For more information about the launch, click the button.

Launch to space Kosmos-3M | Parus 27
Kosmos-3M | Parus 27

Agency: N/A

Status: Launch Successful

Launch date: June 4, 1981, 3:41 p.m. UTC

Rocket: Kosmos-3M

Launch pad: 132/2

Location: Plesetsk Cosmodrome, Russian Federation

...

Latest news about this satellite

There are no fresh news available about this satellite. Check back as we update our databases every day.


Newsletter sign-up

Weekly statistics, charts and insights to help you stay on top of the space industry.